Regional Weather Roundup
Issued by NWS Huntsville, AL

Home | Current Version | Previous Version | Text Only | Print | Product List | Glossary On
Versions: 1 2 3 4 5 6 7 8 9 10 11 12 13 14 15 16 17 18 19 20 21 22 23 24 25 26 27 28 29 30 31 32 33 34 35 36 37 38 39 40 41 42 43 44 45 46 47 48 49 50
000
ASUS44 KHUN 210624
RWRHUN

WEATHER ROUNDUP FOR THE TENNESSEE VALLEY
NATIONAL WEATHER SERVICE HUNTSVILLE AL
100 AM CDT THU AUG 21 2014

ALZ001>004-210700-
NORTHWEST ALABAMA

CITY           SKY/WX    TMP DP  RH WIND       PRES   REMARKS
COURTLAND HCN    N/A     75 N/A N/A CALM        N/A
RUSSELLVILLE     N/A     73 N/A N/A MISG        N/A
SHOALS AIRPORT FAIR      74  71  91 CALM      30.09F
6HR MIN TEMP:  74; 6HR MAX TEMP:  87;

SHOALS TVA RES   N/A     75 N/A N/A MISG        N/A
$$

ALZ005>007-016-210700-
NORTH CENTRAL ALABAMA

CITY           SKY/WX    TMP DP  RH WIND       PRES   REMARKS
DECATUR AP     FAIR      75  71  87 SE5       30.10F
6HR MIN TEMP:  75; 6HR MAX TEMP:  89;

HUNTSVILLE AP  FAIR      76  70  82 S6        30.10F
6HR MIN TEMP:  76; 6HR MAX TEMP:  90;

HUN NWS/UAH      N/A     75  67  75 E2          N/A
MERIDIANVILLE  FAIR      73  64  73 SE3       30.11S
VINEMONT AP    FAIR      71  69  92 CALM      30.13F
$$

ALZ008>010-210700-
NORTHEAST ALABAMA

CITY           SKY/WX    TMP DP  RH WIND       PRES   REMARKS
ALBERTVILLE    FAIR      70  70 100 CALM      30.11F
CROSSVILLE       N/A     68 N/A N/A CALM        N/A
FORT PAYNE     FAIR      68  64  88 N3        30.12F
SCOTTSBORO AP  MOCLDY    72  72 100 N3        30.13F
SCOTTSBORO HCN   N/A     70 N/A N/A MISG        N/A
VALLEY HEAD      N/A     68 N/A N/A MISG        N/A
$$

TNZ076-096-097-210700-
SOUTHEASTERN MIDDLE TENNESSEE

CITY           SKY/WX    TMP DP  RH WIND       PRES   REMARKS
FAYETTEVILLE   CLEAR     70  70 100 E7        30.11F
TULLAHOMA      CLEAR     70  66  88 CALM      30.13F
WINCHESTER     CLEAR     70  66  88 SE6       30.12F
$$

...SURROUNDING SITES...

CITY           SKY/WX    TMP DP  RH WIND       PRES   REMARKS
ATLANTA        CLOUDY    74  66  76 CALM      30.10F
ANNISTON       FAIR      72  69  90 NE5       30.11F
BIRMINGHAM     FAIR      78  67  68 E3        30.12F
CHATTANOOGA    FAIR      72  68  87 CALM      30.13F
CORINTH        FAIR      73  70  88 CALM      30.06F
DALTON         FAIR      68  68 100 CALM      30.12F FOG
GADSDEN        FAIR      72  66  83 CALM      30.10S
GOLDEN TRNGL   FAIR      81  70  69 CALM      30.08F
HALEYVILLE     FAIR      73  73 100 CALM      30.13F FOG
JACKSON TN     FAIR      75  71  87 S6        30.05F
LEWISBURG      FAIR      71  67  87 CALM      30.10F
MEMPHIS        FAIR      79  72  79 S8        30.05S
MURFREESBORO   FAIR      71  68  90 CALM      30.09F
NASHVILLE      MOCLDY    72  70  93 S5        30.09F
OXFORD MS      FAIR      73  72  94 CALM      30.08F
ROME           FAIR      70  69  97 N6        30.12F
SAVANNAH       CLEAR     73  73 100 CALM      30.07F
TUPELO         FAIR      77  73  87 CALM      30.07S
TUSCALOOSA     FAIR      77  74  90 CALM      30.08F
$$

...GULF COAST WEATHER...

CITY           SKY/WX    TMP DP  RH WIND       PRES   REMARKS
GULFPORT       FAIR      79  76  90 CALM      30.07F
PASCAGOULA     FAIR      75  74  96 CALM      30.09F
MOBILE         FAIR      77  75  93 MISG      30.10F
GULF SHORES    FAIR      75  74  97 CALM      30.10S
PENSACOLA      FAIR      76  75  97 CALM      30.09F
DESTIN         FAIR      82  78  88 CALM      30.10F HX  91
PANAMA CITY    MOCLDY    82  78  89 W5        30.10F HX  91
APPALACHICOLA  FAIR      79  75  87 CALM      30.09F
$$



USA.gov is the U.S. government's official web portal to all federal, state and local government web resources and services.